Location: Newark
(49.8348°N, 24.0280°E)
Time: 01:24:34
(UTC+00:00)

Transit 2A - Pass Details

Date: 25 January 2020
Orbit: 600 x 959 km, 66.7° (Epoch: 19 February)

Event Time Altitude Azimuth Distance (km) Brightness Sun altitude
Rises 17:52:05 0° 191° (S) 2,893 9.1 -26.5°
Enters shadow 17:53:51 - 186° (S) 2,209 8.4 -26.8°
Reaches altitude 10° 17:54:30 10° 183° (S) 1,964 - -26.9°
Maximum altitude 17:58:29 36° 117° (ESE) 965 - -27.6°
Drops below altitude 10° 18:02:28 10° 51° (NE) 1,954 - -28.2°
Sets 18:04:51 0° 42° (NE) 2,876 - -28.6°
